Date,TemperatureHighF,TemperatureAvgF,TemperatureLowF,DewpointHighF,DewpointAvgF,DewpointLowF,HumidityHigh,HumidityAvg,HumidityLow,PressureMaxIn,PressureMinIn,WindSpeedMaxMPH,WindSpeedAvgMPH,GustSpeedMaxMPH,PrecipitationSumIn
2013-3-1,37.2,33.0,31.0,30.0,28.0,24.2,92,82,69,29.96,29.90,5,1,11,0.00
2013-3-2,33.5,31.2,27.3,30.5,27.5,21.1,96,86,74,30.00,29.88,4,1,12,0.06
2013-3-3,34.4,27.8,22.9,21.0,18.1,15.4,81,68,50,30.07,29.98,6,1,14,0.00
2013-3-4,55.1,34.0,17.8,32.7,21.2,13.8,92,65,30,30.18,30.00,2,0,6,0.00
2013-3-5,56.0,45.3,32.9,52.4,41.4,25.7,97,86,74,30.02,29.58,10,2,20,0.62
2013-3-6,32.5,29.6,26.9,27.5,24.8,19.8,92,82,68,30.18,29.78,10,3,18,0.01
2013-3-7,52.0,35.7,27.3,34.4,28.2,24.7,91,76,47,30.25,30.15,2,0,10,0.01
2013-3-8,61.8,37.8,22.4,32.9,25.4,20.1,97,68,23,30.33,30.17,2,0,5,0.00
2013-3-9,64.7,44.5,26.1,32.5,27.1,23.4,92,58,23,30.30,30.13,4,0,12,0.00
2013-3-10,63.7,54.0,44.8,39.0,32.2,28.4,63,44,27,30.15,29.98,5,1,19,0.00
2013-3-11,56.6,53.5,50.8,52.5,48.6,40.9,100,84,57,29.97,29.71,12,3,18,1.10
2013-3-12,52.5,42.4,34.7,49.5,35.7,30.7,100,80,44,30.06,29.76,7,1,14,0.04
2013-3-13,47.1,35.6,27.2,31.1,24.8,18.1,97,69,36,30.22,30.04,7,2,12,0.00
2013-3-14,49.6,34.6,21.8,26.5,16.5,11.2,78,51,23,30.34,30.20,6,1,11,0.00
2013-3-15,67.9,47.7,28.2,42.4,34.0,26.2,94,63,32,30.22,29.89,6,1,11,0.00
2013-3-16,72.8,59.0,46.4,47.8,42.7,39.9,82,57,37,29.90,29.75,6,1,13,0.00
2013-3-17,69.4,55.3,43.3,50.6,44.6,40.8,91,70,45,29.92,29.81,5,0,9,0.00
2013-3-18,54.5,50.2,44.9,52.5,47.9,43.4,100,92,82,29.88,29.74,5,1,10,0.59
2013-3-19,59.8,46.2,34.9,48.0,33.2,19.5,100,66,26,30.07,29.81,4,1,12,0.00
2013-3-20,55.1,40.5,28.5,29.6,21.0,10.5,83,51,18,30.10,29.85,7,1,16,0.00
2013-3-21,42.5,30.9,21.9,25.9,13.9,8.2,76,51,27,29.96,29.85,10,1,15,0.00
2013-3-22,44.6,34.6,23.3,32.3,21.7,15.4,79,61,35,30.05,29.95,1,0,3,0.00
2013-3-23,55.6,46.0,39.5,49.2,43.1,32.9,100,90,75,29.98,29.73,4,0,9,0.20
2013-3-24,56.2,48.4,38.5,50.3,46.1,31.3,100,92,73,29.78,29.40,6,1,15,1.51
2013-3-25,38.0,31.8,29.1,30.6,24.1,20.2,90,73,62,30.01,29.58,11,2,17,0.01
2013-3-26,36.2,31.1,27.9,28.3,24.5,21.5,88,77,65,30.25,30.00,5,2,14,0.01
2013-3-27,51.3,36.4,26.9,25.5,23.2,19.3,89,63,31,30.30,30.19,5,1,11,0.00
2013-3-28,57.0,38.1,22.4,29.1,23.7,15.5,94,62,23,30.33,30.21,4,1,12,0.00
2013-3-29,56.9,39.3,25.8,39.1,29.1,22.7,92,70,33,30.33,30.18,2,0,3,0.00
2013-3-30,66.4,52.3,42.5,52.0,41.3,33.6,98,71,32,30.17,29.94,3,0,7,0.30
2013-3-31,60.9,55.1,52.2,55.2,53.1,50.1,100,94,68,29.93,29.79,3,0,9,0.35